Location: Jackson Park
(37.2862°N, 79.9123°W)
Time: 10:49:07
(UTC+00:00)

SR - Pass Details

Date: 23 May 2026
Orbit: 567 x 853 km, 66.7° (Epoch: 10 June)

Event Time Altitude Azimuth Distance (km) Brightness Sun altitude
Rises 19:16:44 0° 334° (NNW) 3,403 ? 59.1°
Reaches altitude 10° 19:19:12 10° 336° (NNW) 2,478 ? 58.7°
Maximum altitude 19:24:59 74° 61° (ENE) 888 ? 57.6°
Drops below altitude 10° 19:30:40 10° 147° (SSE) 2,440 ? 56.6°
Sets 19:33:06 0° 149° (SSE) 3,346 ? 56.1°
